Regional Weather Roundup
Issued by NWS Little Rock, AR

Home | Current Version | Previous Version | Graphics & Text | Print | Product List | Glossary On
Versions: 1 2 3 4 5 6 7 8 9 10 11 12 13 14 15 16 17 18 19 20 21 22 23 24 25 26 27 28 29 30 31 32 33 34 35 36 37 38 39 40 41 42 43 44 45 46 47 48 49 50
000
ASUS44 KLZK 281205
RWRLZK

WEATHER ROUNDUP FOR ARKANSAS
NATIONAL WEATHER SERVICE LITTLE ROCK AR
700 AM CDT THU AUG 28 2014

NOTE: "FAIR" INDICATES FEW OR NO CLOUDS BELOW 12,000 FEET WITH NO
SIGNIFICANT WEATHER AND/OR OBSTRUCTIONS TO VISIBILITY.

ARZ001-003-010-029-281300-
NORTHWEST ARKANSAS

CITY           SKY/WX    TMP DP  RH WIND       PRES   REMARKS
FAYETTEVILLE   CLEAR     65  65 100 CALM      30.04S FOG
6HR MIN TEMP:  65; 6HR MAX TEMP:  70;

FORT SMITH     CLEAR     73  71  93 E5        30.00R FOG
6HR MIN TEMP:  73; 6HR MAX TEMP:  79;

HARRISON       CLEAR     68  67  96 E5        30.06R FOG
6HR MIN TEMP:  67; 6HR MAX TEMP:  75;

BENTONVILLE    CLEAR     70  66  88 SE3       30.05R
6HR MIN TEMP:  70; 6HR MAX TEMP:  75;

ROGERS         PTCLDY    71  67  87 SE5       30.05S
6HR MIN TEMP:  71; 6HR MAX TEMP:  77;

SILOAM SPGS    PTCLDY    70  63  78 SE3       30.04S
6HR MIN TEMP:  70; 6HR MAX TEMP:  73;

HIGHFILL       CLEAR     69  66  90 CALM      30.03S
6HR MIN TEMP:  66; 6HR MAX TEMP:  74;

SPRINGDALE     CLEAR     72  68  88 S6        30.06R
$$

ARZ004-005-016-281300-
NORTH CENTRAL ARKANSAS

CITY           SKY/WX    TMP DP  RH WIND       PRES   REMARKS
BATESVILLE     CLEAR     68  66  94 CALM      30.03R
6HR MIN TEMP:  68; 6HR MAX TEMP:  73;

FLIPPIN        CLEAR     68  63  83 CALM      30.04R
6HR MIN TEMP:  66; 6HR MAX TEMP:  75;

MTN HOME       PTCLDY    68  67  96 CALM      30.04R FOG
6HR MIN TEMP:  68; 6HR MAX TEMP:  76;

$$

ARZ040-041-281300-
WEST CENTRAL ARKANSAS

CITY           SKY/WX    TMP DP  RH WIND       PRES   REMARKS
MENA           CLOUDY    68  66  94 CALM      30.04R VSB<1/4
MOUNT IDA      FOG       67  66  97 CALM      30.01S VSB<1/4
6HR MIN TEMP:  67; 6HR MAX TEMP:  70;

$$

ARZ009-017-025-026-028-281300-
NORTHEAST ARKANSAS

CITY           SKY/WX    TMP DP  RH WIND       PRES   REMARKS
CORNING          N/A     72  72 100 CALM      30.04R FOG
JONESBORO      CLEAR     71  68  90 CALM      30.03R
6HR MIN TEMP:  69; 6HR MAX TEMP:  73;

NEWPORT        CLEAR     72  71  96 CALM      30.04R FOG
6HR MIN TEMP:  72; 6HR MAX TEMP:  78;

WALNUT RIDGE   CLEAR     70  68  94 NE5       30.03R
6HR MIN TEMP:  68; 6HR MAX TEMP:  73;

BLYTHEVILLE    CLEAR     74  73  97 CALM      30.03S
6HR MIN TEMP:  72; 6HR MAX TEMP:  77;

$$

ARZ022-023-033-042-044-281300-
CENTRAL ARKANSAS

CITY           SKY/WX    TMP DP  RH WIND       PRES   REMARKS
LITTLE ROCK    PTCLDY    73  69  87 CALM      30.02R
6HR MIN TEMP:  72; 6HR MAX TEMP:  76;

N LITTLE ROCK    N/A     71  69  95 CALM      30.02R
6HR MIN TEMP:  71; 6HR MAX TEMP:  77;

JACKSONVILLE   CLEAR     68  66  94 CALM      30.02R FOG
6HR MIN TEMP:  67; 6HR MAX TEMP:  72;

SEARCY         CLEAR     69  69 100 CALM      30.03S FOG
6HR MIN TEMP:  69; 6HR MAX TEMP:  73;

HOT SPRINGS    PTCLDY    70  67  90 CALM      30.03R
6HR MIN TEMP:  70; 6HR MAX TEMP:  75;

RUSSELLVILLE   CLEAR     69  67  93 CALM      30.02R FOG
6HR MIN TEMP:  69; 6HR MAX TEMP:  73; 6HR PCP: TRACE;

CLINTON        FAIR      66  66 100 CALM      30.05R FOG
$$

ARZ036-281300-
EAST ARKANSAS

CITY           SKY/WX    TMP DP  RH WIND       PRES   REMARKS
WEST MEMPHIS   CLEAR     70  69  97 MISG      30.01S
6HR MIN TEMP:  69; 6HR MAX TEMP:  73;

$$

ARZ050-053-066-070-073-281300-
SOUTHWEST ARKANSAS

CITY           SKY/WX    TMP DP  RH WIND       PRES   REMARKS
ARKADELPHIA    FOG       70  70 100 CALM      30.01R VSB 1
6HR MIN TEMP:  69; 6HR MAX TEMP:  72;

CAMDEN         CLEAR     66  64  94 CALM      30.00R FOG
TEXARKANA      CLEAR     68  67  96 CALM      29.99R
6HR MIN TEMP:  67; 6HR MAX TEMP:  75;

EL DORADO      CLEAR     69  67  93 CALM      30.00R
6HR MIN TEMP:  68; 6HR MAX TEMP:  72;

DE QUEEN       FOG       67  66  97 CALM      29.99R VSB 3/4
6HR MIN TEMP:  67; 6HR MAX TEMP:  71;

$$

ARZ056-057-069-281300-
SOUTHEAST ARKANSAS

CITY           SKY/WX    TMP DP  RH WIND       PRES   REMARKS
PINE BLUFF     FOG       68  67  96 CALM      30.01S VSB 1/2
6HR MIN TEMP:  68; 6HR MAX TEMP:  72;

STUTTGART      CLEAR     73  68  83 SE3       30.03R
6HR MIN TEMP:  72; 6HR MAX TEMP:  75;

MONTICELLO     CLEAR     69  66  90 CALM      30.01R
6HR MIN TEMP:  69; 6HR MAX TEMP:  72;


$$





USA.gov is the U.S. government's official web portal to all federal, state and local government web resources and services.